QPF
0.15 0.22 0.31 0.29 0.16 0.06 0.06 0.09 0.10 0.07 0.04 0.04 0.05 0.08 0.06 0.05 0.04 0.05 0.05 0.07 0.07 0.06 0.05 0.05 0.06 0.05 0.07 0.07 0.06 0.05 0.05 0.06 0.03 0.02 0.02 0.03 0.03 0.03 0.02 0.03 0.02 0.01 0.01
0.13 0.18 0.24 0.28 0.25 0.07 0.05 0.08 0.10 0.08 0.06 0.05 0.06 0.08 0.08 0.07 0.07 0.08 0.07 0.08 0.08 0.07 0.06 0.06 0.07 0.04 0.05 0.07 0.07 0.08 0.07 0.05 0.03 0.02 0.02 0.03 0.03 0.03 0.02 0.01 0.02 0.02 0.02
0.08 0.11 0.16 0.24 0.21 0.08 0.06 0.08 0.10 0.08 0.06 0.08 0.09 0.07 0.07 0.09 0.10 0.10 0.07 0.07 0.08 0.09 0.06 0.07 0.06 0.03 0.04 0.06 0.08 0.10 0.10 0.05 0.03 0.03 0.02 0.02 0.02 0.03 0.02 0.01 0.02 0.02 0.03
0.07 0.08 0.11 0.16 0.12 0.07 0.05 0.08 0.10 0.08 0.08 0.09 0.11 0.11 0.08 0.08 0.09 0.09 0.06 0.07 0.08 0.08 0.07 0.06 0.05 0.04 0.03 0.05 0.10 0.10 0.09 0.07 0.05 0.03 0.01 0.01 0.02 0.03 0.02 0.03 0.02 0.03 0.03
0.07 0.09 0.09 0.10 0.10 0.08 0.06 0.08 0.11 0.10 0.09 0.10 0.12 0.14 0.12 0.09 0.08 0.08 0.07 0.08 0.08 0.07 0.05 0.05 0.05 0.05 0.03 0.07 0.10 0.07 0.06 0.08 0.08 0.04 0.01 0.03 0.04 0.04 0.03 0.03 0.03 0.03 0.04
0.07 0.12 0.12 0.09 0.10 0.10 0.08 0.10 0.13 0.10 0.09 0.09 0.10 0.11 0.11 0.10 0.08 0.08 0.09 0.10 0.11 0.09 0.07 0.05 0.05 0.05 0.04 0.10 0.10 0.05 0.05 0.06 0.06 0.05 0.02 0.02 0.04 0.05 0.05 0.04 0.04 0.03 0.03
0.06 0.12 0.15 0.11 0.09 0.10 0.09 0.09 0.11 0.10 0.11 0.11 0.10 0.09 0.08 0.08 0.09 0.09 0.11 0.11 0.11 0.11 0.09 0.07 0.06 0.05 0.06 0.13 0.08 0.05 0.06 0.05 0.05 0.04 0.03 0.03 0.03 0.04 0.05 0.06 0.05 0.04 0.04
0.05 0.09 0.13 0.14 0.12 0.12 0.13 0.12 0.12 0.10 0.13 0.13 0.12 0.10 0.09 0.07 0.08 0.09 0.11 0.11 0.10 0.08 0.06 0.07 0.07 0.06 0.10 0.13 0.07 0.05 0.05 0.04 0.02 0.02 0.03 0.04 0.03 0.03 0.05 0.05 0.05 0.04 0.04
0.04 0.06 0.09 0.11 0.12 0.13 0.16 0.17 0.16 0.13 0.17 0.16 0.15 0.14 0.12 0.08 0.08 0.08 0.11 0.12 0.10 0.09 0.08 0.07 0.09 0.10 0.14 0.11 0.06 0.04 0.04 0.05 0.02 0.02 0.02 0.03 0.02 0.03 0.03 0.03 0.03 0.04 0.05
0.04 0.04 0.05 0.07 0.10 0.13 0.15 0.16 0.15 0.15 0.18 0.16 0.16 0.13 0.10 0.09 0.09 0.09 0.11 0.13 0.09 0.08 0.10 0.08 0.10 0.14 0.14 0.09 0.05 0.05 0.05 0.05 0.03 0.01 0.01 0.02 0.02 0.03 0.02 0.02 0.03 0.04 0.05
0.03 0.04 0.04 0.05 0.08 0.11 0.13 0.13 0.14 0.16 0.16 0.14 0.15 0.12 0.09 0.10 0.11 0.10 0.10 0.11 0.10 0.10 0.11 0.12 0.14 0.13 0.11 0.08 0.06 0.06 0.06 0.05 0.03 0.01 0.01 0.01 0.02 0.03 0.03 0.02 0.03 0.04 0.04
0.03 0.04 0.05 0.04 0.06 0.09 0.09 0.13 0.17 0.19 0.19 0.17 0.15 0.10 0.09 0.09 0.09 0.07 0.07 0.13 0.13 0.12 0.14 0.17 0.17 0.13 0.10 0.08 0.07 0.05 0.04 0.03 0.03 0.01 0.01 0.01 0.02 0.03 0.03 0.03 0.03 0.04 0.04
0.02 0.03 0.04 0.03 0.05 0.06 0.09 0.10 0.11 0.14 0.16 0.15 0.12 0.09 0.08 0.08 0.07 0.07 0.07 0.11 0.17 0.18 0.19 0.21 0.18 0.13 0.10 0.08 0.05 0.04 0.04 0.03 0.03 0.02 0.01 0.01 0.02 0.03 0.03 0.04 0.04 0.04 0.04
0.02 0.02 0.03 0.02 0.04 0.05 0.07 0.05 0.05 0.08 0.09 0.09 0.09 0.10 0.08 0.06 0.06 0.07 0.11 0.14 0.16 0.17 0.16 0.18 0.17 0.11 0.10 0.08 0.05 0.04 0.05 0.06 0.04 0.02 0.02 0.02 0.02 0.02 0.04 0.05 0.05 0.05 0.04
0.01 0.01 0.02 0.02 0.03 0.05 0.05 0.02 0.04 0.07 0.07 0.08 0.09 0.09 0.08 0.07 0.06 0.08 0.11 0.12 0.12 0.13 0.13 0.14 0.14 0.12 0.10 0.09 0.08 0.05 0.05 0.08 0.07 0.06 0.03 0.02 0.03 0.03 0.04 0.05 0.06 0.07 0.07
0.01 0.01 0.02 0.02 0.05 0.06 0.04 0.02 0.05 0.06 0.05 0.06 0.09 0.09 0.10 0.09 0.08 0.10 0.11 0.11 0.12 0.11 0.11 0.11 0.11 0.12 0.11 0.10 0.10 0.09 0.07 0.08 0.08 0.08 0.05 0.04 0.03 0.04 0.04 0.06 0.07 0.08 0.11
0.01 0.01 0.02 0.05 0.06 0.04 0.03 0.03 0.04 0.04 0.03 0.05 0.08 0.07 0.07 0.08 0.08 0.08 0.09 0.08 0.08 0.09 0.12 0.12 0.11 0.12 0.12 0.12 0.11 0.09 0.08 0.09 0.09 0.10 0.07 0.05 0.04 0.04 0.04 0.05 0.08 0.09 0.11
0.02 0.01 0.02 0.04 0.03 0.02 0.02 0.03 0.03 0.03 0.03 0.06 0.06 0.05 0.05 0.06 0.06 0.06 0.07 0.06 0.07 0.10 0.15 0.14 0.11 0.13 0.14 0.14 0.13 0.11 0.09 0.08 0.09 0.09 0.07 0.06 0.06 0.06 0.06 0.06 0.07 0.10 0.12
0.02 0.01 0.01 0.03 0.03 0.01 0.01 0.02 0.03 0.04 0.04 0.04 0.04 0.05 0.05 0.06 0.06 0.06 0.07 0.07 0.07 0.10 0.12 0.10 0.12 0.16 0.17 0.16 0.12 0.12 0.11 0.09 0.08 0.06 0.04 0.05 0.05 0.06 0.08 0.08 0.08 0.11 0.14
0.02 0.01 0.01 0.01 0.02 0.02 0.01 0.02 0.02 0.03 0.03 0.04 0.06 0.08 0.07 0.05 0.06 0.08 0.06 0.06 0.07 0.09 0.09 0.08 0.10 0.14 0.16 0.16 0.12 0.10 0.10 0.08 0.06 0.04 0.03 0.02 0.02 0.03 0.06 0.09 0.12 0.13 0.12
0.02 0.02 0.02 0.02 0.02 0.03 0.02 0.02 0.03 0.03 0.03 0.04 0.04 0.05 0.06 0.07 0.08 0.08 0.07 0.06 0.06 0.09 0.11 0.11 0.10 0.12 0.14 0.13 0.10 0.09 0.09 0.06 0.05 0.04 0.03 0.03 0.03 0.04 0.05 0.08 0.12 0.10 0.07
0.03 0.02 0.02 0.02 0.02 0.02 0.02 0.03 0.02 0.02 0.02 0.03 0.04 0.08 0.08 0.09 0.09 0.09 0.09 0.08 0.08 0.11 0.13 0.13 0.12 0.11 0.11 0.11 0.08 0.08 0.08 0.07 0.04 0.03 0.04 0.04 0.05 0.06 0.05 0.06 0.10 0.10 0.07
0.03 0.02 0.01 0.01 0.02 0.01 0.01 0.02 0.02 0.02 0.01 0.02 0.03 0.05 0.06 0.07 0.10 0.14 0.15 0.11 0.10 0.10 0.11 0.12 0.12 0.12 0.11 0.10 0.07 0.09 0.08 0.06 0.04 0.04 0.03 0.04 0.06 0.07 0.05 0.04 0.04 0.06 0.06
0.02 0.01 0.01 0.01 0.01 0.01 0.02 0.02 0.02 0.02 0.03 0.03 0.03 0.04 0.06 0.06 0.10 0.16 0.19 0.20 0.17 0.13 0.11 0.11 0.12 0.14 0.14 0.12 0.10 0.08 0.07 0.07 0.06 0.06 0.07 0.06 0.06 0.06 0.04 0.02 0.02 0.05 0.07
0.02 0.02 0.01 0.01 0.01 0.01 0.02 0.02 0.01 0.02 0.03 0.03 0.04 0.04 0.07 0.11 0.15 0.15 0.11 0.11 0.12 0.11 0.11 0.12 0.14 0.16 0.16 0.16 0.15 0.13 0.11 0.09 0.07 0.05 0.05 0.05 0.05 0.05 0.03 0.03 0.03 0.04 0.04
0.03 0.02 0.01 0.01 0.01 0.01 0.01 0.01 0.01 0.02 0.03 0.02 0.02 0.03 0.06 0.12 0.13 0.08 0.08 0.09 0.09 0.09 0.08 0.08 0.09 0.09 0.10 0.10 0.10 0.09 0.10 0.09 0.08 0.06 0.04 0.04 0.06 0.06 0.05 0.04 0.03 0.02 0.03
MSLP
1008.35 1008.22 1008.30 1008.59 1009.06 1009.61 1010.16 1010.65 1011.02 1011.29 1011.47 1011.64 1011.83 1012.09 1012.42 1012.82 1013.23 1013.62 1013.95 1014.21 1014.39 1014.53 1014.67 1014.82 1015.00 1015.22 1015.45 1015.66 1015.82 1015.93 1015.97 1015.98 1015.97 1015.98 1016.04 1016.14 1016.28 1016.44 1016.59 1016.72 1016.82 1016.89 1016.95
1008.26 1008.18 1008.32 1008.67 1009.17 1009.75 1010.33 1010.83 1011.21 1011.49 1011.69 1011.87 1012.08 1012.36 1012.71 1013.11 1013.52 1013.89 1014.19 1014.41 1014.57 1014.69 1014.82 1014.98 1015.19 1015.43 1015.69 1015.92 1016.09 1016.20 1016.24 1016.23 1016.22 1016.23 1016.28 1016.39 1016.55 1016.72 1016.89 1017.03 1017.13 1017.19 1017.23
1008.15 1008.13 1008.32 1008.73 1009.28 1009.90 1010.50 1011.03 1011.43 1011.73 1011.95 1012.15 1012.38 1012.67 1013.01 1013.39 1013.77 1014.10 1014.36 1014.54 1014.67 1014.79 1014.92 1015.11 1015.34 1015.62 1015.91 1016.16 1016.34 1016.45 1016.48 1016.46 1016.43 1016.43 1016.49 1016.60 1016.76 1016.94 1017.12 1017.26 1017.37 1017.43 1017.46
1008.04 1008.08 1008.33 1008.79 1009.39 1010.05 1010.68 1011.24 1011.67 1012.00 1012.25 1012.48 1012.73 1013.02 1013.35 1013.70 1014.03 1014.31 1014.53 1014.67 1014.78 1014.89 1015.04 1015.24 1015.51 1015.82 1016.12 1016.38 1016.57 1016.66 1016.67 1016.64 1016.59 1016.58 1016.62 1016.74 1016.90 1017.09 1017.27 1017.43 1017.54 1017.61 1017.66
1007.96 1008.05 1008.36 1008.86 1009.50 1010.19 1010.86 1011.44 1011.91 1012.27 1012.57 1012.83 1013.10 1013.41 1013.73 1014.05 1014.34 1014.58 1014.75 1014.86 1014.95 1015.06 1015.22 1015.45 1015.73 1016.05 1016.36 1016.61 1016.77 1016.83 1016.82 1016.75 1016.68 1016.65 1016.69 1016.80 1016.96 1017.16 1017.35 1017.52 1017.65 1017.74 1017.81
1007.93 1008.07 1008.42 1008.96 1009.63 1010.33 1011.01 1011.61 1012.11 1012.52 1012.86 1013.17 1013.48 1013.81 1014.14 1014.45 1014.72 1014.92 1015.06 1015.15 1015.23 1015.34 1015.50 1015.73 1016.01 1016.32 1016.60 1016.82 1016.94 1016.96 1016.90 1016.80 1016.70 1016.66 1016.68 1016.79 1016.96 1017.16 1017.36 1017.55 1017.70 1017.82 1017.93
1007.99 1008.16 1008.54 1009.10 1009.76 1010.46 1011.13 1011.74 1012.26 1012.70 1013.09 1013.46 1013.83 1014.20 1014.56 1014.88 1015.15 1015.34 1015.46 1015.53 1015.60 1015.70 1015.85 1016.07 1016.33 1016.61 1016.84 1017.00 1017.06 1017.02 1016.91 1016.77 1016.65 1016.60 1016.62 1016.73 1016.90 1017.11 1017.33 1017.53 1017.70 1017.85 1017.99
1008.14 1008.33 1008.72 1009.27 1009.91 1010.58 1011.22 1011.82 1012.35 1012.82 1013.27 1013.70 1014.14 1014.57 1014.98 1015.33 1015.61 1015.80 1015.92 1015.98 1016.03 1016.12 1016.25 1016.43 1016.65 1016.87 1017.04 1017.13 1017.12 1017.02 1016.86 1016.69 1016.55 1016.49 1016.52 1016.63 1016.82 1017.04 1017.27 1017.48 1017.67 1017.84 1018.00
1008.38 1008.60 1008.98 1009.50 1010.09 1010.71 1011.31 1011.87 1012.40 1012.90 1013.40 1013.90 1014.42 1014.92 1015.39 1015.78 1016.08 1016.28 1016.39 1016.44 1016.47 1016.53 1016.62 1016.77 1016.93 1017.09 1017.18 1017.20 1017.13 1016.97 1016.77 1016.58 1016.43 1016.36 1016.40 1016.53 1016.74 1016.97 1017.21 1017.43 1017.62 1017.79 1017.95
1008.73 1008.95 1009.32 1009.80 1010.33 1010.88 1011.42 1011.94 1012.45 1012.98 1013.52 1014.10 1014.69 1015.26 1015.79 1016.22 1016.54 1016.75 1016.84 1016.87 1016.88 1016.89 1016.95 1017.04 1017.14 1017.23 1017.27 1017.22 1017.09 1016.89 1016.66 1016.44 1016.29 1016.24 1016.29 1016.44 1016.66 1016.90 1017.15 1017.37 1017.55 1017.71 1017.86
1009.17 1009.40 1009.75 1010.18 1010.65 1011.12 1011.60 1012.08 1012.58 1013.11 1013.70 1014.33 1014.99 1015.62 1016.19 1016.66 1016.99 1017.19 1017.26 1017.26 1017.22 1017.20 1017.20 1017.24 1017.29 1017.33 1017.30 1017.21 1017.03 1016.80 1016.55 1016.32 1016.17 1016.12 1016.19 1016.35 1016.58 1016.84 1017.08 1017.29 1017.47 1017.60 1017.73
1009.71 1009.95 1010.28 1010.66 1011.06 1011.47 1011.89 1012.33 1012.81 1013.36 1013.97 1014.65 1015.35 1016.02 1016.62 1017.10 1017.43 1017.60 1017.64 1017.59 1017.51 1017.44 1017.39 1017.38 1017.39 1017.38 1017.32 1017.19 1016.98 1016.72 1016.45 1016.21 1016.05 1016.00 1016.07 1016.24 1016.47 1016.73 1016.98 1017.18 1017.34 1017.45 1017.54
1010.32 1010.56 1010.88 1011.22 1011.58 1011.94 1012.31 1012.72 1013.19 1013.74 1014.37 1015.07 1015.79 1016.48 1017.08 1017.55 1017.85 1017.98 1017.98 1017.89 1017.76 1017.64 1017.55 1017.50 1017.47 1017.43 1017.34 1017.18 1016.95 1016.66 1016.37 1016.11 1015.92 1015.86 1015.91 1016.07 1016.30 1016.55 1016.79 1016.99 1017.14 1017.23 1017.30
1010.98 1011.23 1011.54 1011.86 1012.18 1012.51 1012.85 1013.24 1013.70 1014.25 1014.89 1015.59 1016.30 1016.98 1017.55 1017.98 1018.24 1018.33 1018.28 1018.14 1017.97 1017.81 1017.69 1017.61 1017.56 1017.49 1017.38 1017.20 1016.94 1016.63 1016.30 1016.00 1015.77 1015.67 1015.68 1015.81 1016.01 1016.26 1016.50 1016.69 1016.84 1016.92 1016.97
1011.67 1011.93 1012.22 1012.53 1012.84 1013.15 1013.49 1013.87 1014.33 1014.86 1015.49 1016.16 1016.84 1017.47 1017.99 1018.37 1018.57 1018.62 1018.52 1018.35 1018.15 1017.97 1017.83 1017.73 1017.66 1017.57 1017.44 1017.24 1016.95 1016.60 1016.23 1015.87 1015.59 1015.41 1015.37 1015.44 1015.61 1015.83 1016.06 1016.26 1016.40 1016.50 1016.55
1012.35 1012.61 1012.90 1013.20 1013.50 1013.82 1014.16 1014.55 1015.00 1015.51 1016.09 1016.71 1017.33 1017.88 1018.33 1018.64 1018.79 1018.79 1018.67 1018.48 1018.28 1018.09 1017.94 1017.84 1017.76 1017.66 1017.52 1017.29 1016.97 1016.58 1016.15 1015.73 1015.37 1015.11 1014.99 1014.99 1015.10 1015.28 1015.49 1015.69 1015.85 1015.96 1016.02
1012.98 1013.23 1013.52 1013.82 1014.14 1014.47 1014.82 1015.21 1015.64 1016.12 1016.64 1017.18 1017.70 1018.16 1018.52 1018.75 1018.85 1018.82 1018.70 1018.51 1018.32 1018.15 1018.02 1017.92 1017.85 1017.74 1017.59 1017.34 1017.00 1016.57 1016.08 1015.59 1015.15 1014.81 1014.59 1014.50 1014.54 1014.67 1014.85 1015.04 1015.21 1015.34 1015.42
1013.54 1013.78 1014.05 1014.36 1014.69 1015.04 1015.40 1015.78 1016.19 1016.62 1017.06 1017.49 1017.90 1018.25 1018.51 1018.67 1018.73 1018.69 1018.57 1018.42 1018.27 1018.14 1018.04 1017.96 1017.90 1017.80 1017.64 1017.38 1017.02 1016.57 1016.04 1015.50 1014.99 1014.56 1014.24 1014.07 1014.03 1014.09 1014.23 1014.40 1014.56 1014.71 1014.81
1013.98 1014.20 1014.47 1014.78 1015.12 1015.48 1015.86 1016.23 1016.60 1016.97 1017.31 1017.63 1017.92 1018.14 1018.31 1018.40 1018.43 1018.39 1018.31 1018.21 1018.12 1018.04 1017.99 1017.95 1017.90 1017.82 1017.67 1017.41 1017.05 1016.59 1016.06 1015.48 1014.92 1014.43 1014.04 1013.77 1013.64 1013.63 1013.71 1013.84 1014.00 1014.14 1014.26
1014.28 1014.50 1014.76 1015.07 1015.42 1015.79 1016.16 1016.53 1016.86 1017.15 1017.40 1017.61 1017.77 1017.88 1017.95 1017.99 1017.99 1017.97 1017.94 1017.91 1017.89 1017.88 1017.88 1017.88 1017.86 1017.80 1017.66 1017.43 1017.10 1016.66 1016.14 1015.57 1015.00 1014.47 1014.02 1013.68 1013.46 1013.37 1013.38 1013.46 1013.58 1013.71 1013.84
1014.42 1014.64 1014.89 1015.20 1015.56 1015.94 1016.32 1016.67 1016.97 1017.20 1017.36 1017.46 1017.51 1017.52 1017.51 1017.50 1017.50 1017.50 1017.53 1017.56 1017.61 1017.67 1017.72 1017.77 1017.78 1017.74 1017.63 1017.44 1017.14 1016.76 1016.29 1015.76 1015.21 1014.67 1014.19 1013.80 1013.51 1013.34 1013.27 1013.28 1013.36 1013.47 1013.59
1014.41 1014.62 1014.88 1015.19 1015.55 1015.94 1016.33 1016.67 1016.94 1017.13 1017.23 1017.24 1017.20 1017.14 1017.07 1017.03 1017.02 1017.05 1017.12 1017.22 1017.33 1017.44 1017.54 1017.61 1017.65 1017.63 1017.55 1017.40 1017.16 1016.84 1016.45 1015.99 1015.49 1014.99 1014.51 1014.09 1013.75 1013.51 1013.37 1013.31 1013.34 1013.42 1013.52
1014.23 1014.46 1014.72 1015.04 1015.41 1015.81 1016.21 1016.55 1016.83 1016.99 1017.05 1017.02 1016.92 1016.80 1016.70 1016.63 1016.62 1016.67 1016.78 1016.91 1017.06 1017.21 1017.33 1017.41 1017.45 1017.45 1017.39 1017.27 1017.10 1016.86 1016.56 1016.19 1015.78 1015.33 1014.89 1014.47 1014.10 1013.81 1013.61 1013.49 1013.47 1013.51 1013.59
1013.91 1014.17 1014.44 1014.77 1015.15 1015.57 1015.98 1016.35 1016.63 1016.81 1016.86 1016.82 1016.70 1016.55 1016.42 1016.34 1016.32 1016.38 1016.49 1016.65 1016.81 1016.96 1017.07 1017.15 1017.18 1017.16 1017.11 1017.03 1016.91 1016.74 1016.53 1016.27 1015.95 1015.59 1015.20 1014.81 1014.45 1014.13 1013.89 1013.73 1013.66 1013.67 1013.73
1013.49 1013.78 1014.07 1014.41 1014.80 1015.23 1015.66 1016.06 1016.38 1016.58 1016.66 1016.63 1016.52 1016.37 1016.23 1016.13 1016.10 1016.15 1016.25 1016.39 1016.53 1016.66 1016.75 1016.79 1016.79 1016.76 1016.70 1016.63 1016.55 1016.44 1016.32 1016.15 1015.93 1015.66 1015.35 1015.02 1014.68 1014.37 1014.12 1013.93 1013.83 1013.82 1013.87
1012.99 1013.31 1013.63 1013.97 1014.37 1014.81 1015.27 1015.70 1016.06 1016.31 1016.43 1016.44 1016.35 1016.21 1016.07 1015.96 1015.91 1015.92 1015.99 1016.09 1016.20 1016.28 1016.33 1016.33 1016.29 1016.22 1016.15 1016.08 1016.01 1015.96 1015.90 1015.81 1015.69 1015.51 1015.29 1015.02 1014.74 1014.47 1014.22 1014.04 1013.93 1013.91 1013.95
Thickness
5808 5807 5800 5799 5799 5798 5798 5797 5796 5795 5793 5792 5790 5789 5787 5785 5783 5781 5780 5779 5778 5777 5776 5775 5774 5773 5771 5770 5769 5768 5767 5766 5765 5763 5762 5761 5760 5759 5759 5758 5758 5758 5754
5811 5807 5800 5799 5798 5797 5797 5796 5795 5794 5792 5791 5789 5787 5786 5784 5782 5780 5779 5778 5777 5775 5774 5773 5772 5771 5770 5769 5768 5767 5766 5765 5764 5763 5762 5761 5760 5759 5758 5758 5758 5757 5753
5811 5807 5803 5800 5797 5797 5796 5795 5794 5793 5791 5790 5788 5786 5784 5782 5781 5779 5778 5776 5776 5774 5773 5772 5771 5770 5769 5768 5767 5766 5765 5764 5763 5763 5763 5764 5761 5758 5757 5756 5755 5754 5752
5811 5807 5804 5799 5797 5796 5794 5793 5792 5791 5790 5788 5787 5785 5783 5781 5779 5778 5776 5775 5774 5773 5772 5771 5770 5769 5768 5767 5766 5765 5764 5763 5763 5764 5767 5767 5764 5758 5756 5755 5754 5752 5751
5811 5807 5801 5797 5796 5794 5793 5792 5791 5790 5788 5787 5785 5783 5781 5780 5778 5777 5775 5774 5773 5772 5771 5771 5770 5768 5767 5766 5766 5765 5764 5764 5764 5765 5767 5765 5763 5757 5755 5754 5753 5751 5750
5810 5807 5801 5797 5795 5793 5792 5790 5789 5788 5787 5785 5783 5781 5780 5778 5777 5776 5774 5773 5772 5772 5771 5770 5769 5768 5767 5766 5765 5765 5764 5764 5765 5768 5766 5764 5762 5757 5755 5754 5752 5751 5750
5809 5806 5801 5795 5794 5792 5791 5789 5788 5787 5785 5784 5782 5781 5779 5777 5776 5775 5774 5772 5771 5771 5770 5769 5769 5768 5767 5766 5765 5764 5764 5764 5768 5768 5766 5764 5761 5757 5755 5754 5752 5751 5749
5808 5805 5800 5794 5792 5791 5789 5788 5787 5786 5784 5783 5781 5780 5778 5776 5775 5774 5773 5772 5771 5770 5769 5769 5768 5767 5766 5766 5765 5764 5764 5764 5768 5769 5767 5765 5760 5757 5755 5753 5752 5750 5749
5808 5805 5801 5797 5793 5790 5788 5786 5785 5784 5782 5781 5780 5779 5777 5775 5774 5773 5772 5771 5771 5770 5769 5769 5768 5767 5767 5766 5766 5765 5764 5765 5769 5769 5768 5766 5760 5757 5756 5754 5752 5751 5749
5806 5804 5801 5798 5795 5792 5789 5785 5783 5782 5781 5779 5778 5777 5776 5775 5774 5774 5773 5771 5771 5770 5769 5768 5768 5767 5767 5766 5766 5765 5765 5766 5771 5771 5770 5766 5760 5758 5756 5755 5753 5752 5750
5801 5802 5801 5798 5795 5793 5791 5786 5783 5781 5779 5779 5778 5776 5776 5777 5777 5775 5774 5772 5771 5771 5769 5768 5768 5767 5767 5767 5767 5766 5767 5771 5772 5772 5770 5765 5761 5759 5757 5756 5754 5753 5751
5798 5799 5798 5797 5795 5793 5791 5787 5784 5783 5781 5780 5779 5777 5777 5777 5776 5776 5774 5772 5771 5771 5769 5768 5768 5768 5769 5771 5770 5768 5772 5773 5773 5772 5770 5765 5761 5759 5758 5757 5755 5754 5752
5800 5798 5798 5796 5793 5792 5789 5787 5785 5783 5781 5780 5778 5777 5776 5777 5777 5777 5776 5774 5772 5771 5771 5770 5769 5771 5772 5772 5772 5773 5773 5774 5774 5774 5770 5765 5762 5760 5759 5758 5756 5754 5753
5799 5797 5797 5794 5791 5789 5788 5787 5785 5784 5781 5780 5777 5776 5776 5777 5777 5776 5775 5775 5774 5773 5772 5772 5771 5771 5772 5772 5772 5773 5773 5773 5773 5773 5770 5765 5763 5761 5760 5758 5757 5756 5754
5798 5796 5795 5792 5789 5786 5785 5785 5785 5782 5781 5779 5776 5775 5775 5776 5775 5775 5773 5773 5774 5773 5773 5771 5772 5771 5771 5772 5772 5772 5772 5772 5772 5772 5770 5766 5764 5762 5760 5759 5758 5756 5755
5797 5795 5794 5791 5788 5785 5784 5782 5782 5782 5779 5779 5777 5775 5773 5774 5773 5773 5772 5771 5772 5772 5772 5771 5772 5771 5771 5772 5772 5771 5771 5772 5771 5770 5769 5767 5765 5763 5762 5760 5759 5758 5756
5798 5796 5793 5790 5788 5785 5783 5782 5782 5781 5780 5779 5777 5774 5773 5773 5772 5771 5771 5772 5772 5772 5771 5771 5772 5771 5771 5771 5771 5771 5772 5772 5771 5770 5769 5769 5768 5765 5763 5761 5760 5758 5757
5800 5796 5793 5792 5788 5785 5782 5781 5781 5780 5779 5778 5776 5775 5773 5772 5771 5770 5772 5773 5771 5771 5770 5770 5770 5770 5770 5770 5770 5771 5771 5770 5770 5769 5769 5769 5768 5768 5765 5763 5760 5759 5757
5800 5796 5792 5790 5788 5785 5783 5781 5780 5779 5778 5777 5776 5775 5774 5772 5771 5771 5771 5770 5770 5770 5769 5769 5769 5768 5767 5767 5768 5769 5769 5770 5769 5770 5769 5769 5768 5767 5766 5763 5761 5760 5758
5800 5796 5792 5789 5787 5785 5783 5781 5779 5778 5778 5777 5776 5774 5772 5772 5771 5771 5771 5770 5770 5770 5768 5767 5765 5765 5765 5764 5766 5766 5767 5768 5769 5769 5768 5769 5768 5767 5766 5765 5763 5761 5758
5800 5795 5791 5788 5786 5784 5782 5780 5778 5776 5777 5776 5775 5773 5772 5771 5771 5770 5771 5769 5768 5768 5767 5767 5765 5763 5762 5763 5761 5759 5762 5766 5766 5766 5767 5767 5767 5766 5765 5763 5762 5761 5759
5799 5795 5792 5789 5787 5785 5783 5781 5779 5778 5777 5776 5775 5773 5772 5771 5770 5770 5768 5768 5768 5766 5765 5764 5762 5761 5761 5761 5757 5754 5752 5755 5759 5765 5764 5764 5764 5764 5764 5763 5761 5759 5758
5801 5797 5795 5790 5787 5785 5783 5782 5780 5777 5776 5775 5774 5773 5772 5770 5769 5769 5768 5767 5766 5765 5763 5762 5761 5759 5758 5759 5759 5754 5749 5748 5753 5760 5760 5761 5760 5760 5761 5761 5760 5758 5757
5804 5800 5795 5791 5787 5785 5783 5781 5779 5775 5773 5773 5772 5772 5770 5769 5768 5767 5766 5765 5764 5764 5762 5761 5762 5759 5757 5756 5757 5756 5755 5753 5748 5749 5755 5758 5758 5757 5758 5759 5759 5758 5756
5806 5801 5796 5791 5787 5784 5783 5781 5777 5776 5775 5774 5773 5770 5768 5769 5767 5766 5765 5763 5762 5762 5761 5760 5759 5758 5757 5755 5754 5754 5753 5752 5751 5746 5746 5750 5753 5755 5756 5756 5757 5757 5756
5806 5802 5797 5790 5785 5784 5781 5780 5776 5774 5772 5770 5768 5768 5767 5767 5766 5765 5763 5761 5761 5760 5759 5758 5757 5756 5755 5754 5753 5753 5752 5749 5747 5746 5744 5746 5747 5751 5753 5754 5754 5754 5754